Вернуться в каталог

OPS 3165

АктивенВоенныеGEO
NORAD 8482·PAYLOAD·🇺🇸 United States

Запущен Dec 14, 1975 с Cape Canaveral Space Force Station

Loading…

TLE

СвежийSource: Space-Track

Эпоха: Sep 14, 2026, 15:06 UTC

1 08482U 75118A   26257.62931633 -.00000168  00000-0  00000-0 0  9995
2 08482   2.0732 255.2268 0033318  28.8273  86.3499  1.00456933 27353

Отслеживайте OPS 3165 в реальном времени с AllMySat

Download on the App Store